{"data":{"norad_id":56155,"intl_designator":"2023-047C","name":"PIESAT C","alt_names":[],"object_type":"PAYLOAD","status":"ACTIVE","operator":null,"country":"PRC","launch_date":"2023-03-30","launch_site_code":"TAISC","launch_vehicle":null,"mission":null,"orbit_class":"UNKNOWN","rcs_meters":null,"size_class":null,"mass_kg":null,"dimensions":null,"purposes":[],"wikipedia_slug":null,"has_3d_model":false,"image_url":null,"decayed_at":null,"tle_current":{"epoch":"2026-09-21T13:32:55.114656Z","epoch_age_seconds":94869,"freshness":"FRESH","line1":"1 56155U 23047C   26264.56452679  .00002760  00000+0  15439-3 0  9991","line2":"2 56155  97.5020  90.3200 0001733  89.2259 270.9171 15.14291632192384","mean_motion":15.14291632,"eccentricity":0.0001733,"inclination_deg":97.502,"raan_deg":90.32,"arg_perigee_deg":89.2259,"mean_anomaly_deg":270.9171,"bstar":0.00015439,"rev_number":19238,"period_min":95.093968002591,"perigee_km":521.93395340351,"apogee_km":524.32593252594,"semimajor_km":6901.2669429647,"source":"CELESTRAK","updated_at":"2026-09-22T09:00:25.702483Z"}}}